This is the latest recevied weather packets stored in our database for station/object W3TMB. If no packets are shown the sender has not sent any weather packets the latest 10 day(s).
| Time | Temp. | Humidity | Pressure | Rain* | Wind** | Luminosity | Snow |
|---|---|---|---|---|---|---|---|
| 1778145688 | 3.89° C | 96% | 1010.1 hPa | 0 mm | - | 0 W/m² | - |
| 1778145384 | 3.89° C | 96% | 1010.1 hPa | 0 mm | - | 0 W/m² | - |
| 1778145080 | 4.44° C | 96% | 1010 hPa | 0 mm | - | 0 W/m² | - |
| 1778144776 | 4.44° C | 95% | 1009.9 hPa | 0 mm | - | 0 W/m² | - |
| 1778144474 | 5° C | 95% | 1009.8 hPa | 0 mm | - | 0 W/m² | - |
| 1778144171 | 4.44° C | 94% | 1009.7 hPa | 0 mm | - | 0 W/m² | - |
| 1778143867 | 5° C | 93% | 1009.9 hPa | 0 mm | - | 0 W/m² | - |
| 1778143564 | 5° C | 92% | 1009.8 hPa | 0 mm | - | 0 W/m² | - |
| 1778143261 | 5° C | 91% | 1010 hPa | 0 mm | - | 0 W/m² | - |
| 1778142957 | 5.56° C | 90% | 1009.9 hPa | 0 mm | - | 0 W/m² | - |
| 1778142654 | 5.56° C | 89% | 1009.9 hPa | 0 mm | - | 0 W/m² | - |
| 1778142350 | 6.11° C | 88% | 1009.9 hPa | 0 mm | - | 0 W/m² | - |
| 1778142047 | 6.11° C | 87% | 1009.7 hPa | 0 mm | - | 0 W/m² | - |
| 1778141743 | 6.11° C | 87% | 1009.8 hPa | 0 mm | - | 0 W/m² | - |
| 1778141440 | 6.11° C | 87% | 1010 hPa | 0 mm | - | 0 W/m² | - |
| 1778141136 | 6.67° C | 87% | 1009.7 hPa | 0 mm | - | 0 W/m² | - |
| 1778140833 | 6.67° C | 87% | 1009.9 hPa | 0 mm | - | 0 W/m² | - |
| 1778140528 | 7.22° C | 86% | 1009.8 hPa | 0 mm | - | 0 W/m² | - |
| 1778140225 | 7.22° C | 84% | 1009.8 hPa | 0 mm | - | 0 W/m² | - |
| 1778139921 | 7.78° C | 83% | 1009.8 hPa | 0 mm | - | 0 W/m² | - |
| 1778139620 | 7.78° C | 82% | 1009.8 hPa | 0 mm | - | 0 W/m² | - |
| 1778139316 | 7.78° C | 82% | 1009.8 hPa | 0 mm | - | 0 W/m² | - |
| 1778139013 | 7.78° C | 83% | 1009.6 hPa | 0 mm | - | 0 W/m² | - |
| 1778138710 | 7.78° C | 85% | 1009.8 hPa | 0 mm | - | 0 W/m² | - |
| 1778138407 | 7.78° C | 85% | 1009.6 hPa | 0 mm | - | 0 W/m² | - |
* Rain latest hour (hover to see other rain measurements)
** Current wind speed in m/s (hover to see current wind gust speed)